Regional Weather Roundup
Issued by NWS

Home | Current Version | Previous Version | Text Only | Print | Product List | Glossary Off
Versions: 1 2 3 4 5 6 7 8 9 10 11 12 13 14 15 16 17 18 19 20 21 22 23 24 25 26 27 28 29 30 31 32 33 34 35 36 37 38 39 40 41 42 43 44 45 46 47 48 49 50

000
ASUS45 KCYS 031610
RWRWY

WYOMING REGIONAL WEATHER ROUNDUP
NATIONAL WEATHER SERVICE CHEYENNE WY
900 AM MST TUE MAR 03 2015

NOTE:  "FAIR" INDICATES FEW OR NO CLOUDS BELOW 12,000 FEET
WITH NO SIGNIFICANT WEATHER AND/OR OBSTRUCTIONS TO VISIBILITY.

WYZ001-031700-
YELLOWSTONE NATIONAL PARK

CITY           SKY/WX    TMP DP  RH WIND       PRES   REMARKS
LK YELLOWSTONE   N/A      5  -5  63 MISG      29.76S
W YELLOWSTONE  NOT AVBL

$$
WYZ002>013-054>058-071-098>099-031700-
NORTHERN WYOMING

CITY           SKY/WX    TMP DP  RH WIND       PRES   REMARKS
JACKSON        LGT SNOW  12  10  92 N22       29.75R WCI  -7
CODY           CLOUDY     7   3  85 N17       29.99S WCI -12
GREYBULL       SNOW      12   8  84 NW23      30.02R VSB 1/2 WCI  -7
WORLAND        LGT SNOW  14   8  77 NW17      30.01R WCI  -3
SHERIDAN       LGT SNOW  10   4  76 N15       30.07F WCI  -7
BUFFALO        LGT SNOW   8   3  80 N23G35    29.96R VSB 3/4 WCI -13
GILLETTE       LGT SNOW   9   2  73 N21       30.00R WCI -11
HULETT         CLOUDY    10   3  72 N7        30.01R HAZE    WCI   0
NEWCASTLE      FAIR      14   3  62 NW20G26   29.97R WCI  -3

$$
WYZ014>020-022>026-101>103-031700-
CENTRAL WYOMING

CITY           SKY/WX    TMP DP  RH WIND       PRES   REMARKS
BIG PINEY      CLOUDY    18  13  80 S10       29.71R WCI   6
PINEDALE       LGT SNOW  18  14  86 SE9       29.71S WCI   6
DUBOIS         LGT SNOW   9   5  85 SE15      29.77R VSB 3/4 WCI  -8
LANDER         SNOW      11   6  81 NE7       29.90R VSB 1/2 WCI   0
RIVERTON       LGT SNOW  11   7  84 E15       29.91R VSB 1   WCI  -5
CASPER         CLOUDY     7   1  76 NE13      29.96R HAZE    WCI  -9
DOUGLAS        LGT SNOW  10   4  76 N14       29.98R WCI  -6

$$
WYZ021-027>030-104>119-031700-
SOUTHERN WYOMING

CITY           SKY/WX    TMP DP  RH WIND       PRES   REMARKS
EVANSTON       HVY SNOW  23  21  92 NW13G25   29.70R VSB<1/4 WCI  11
KEMMERER       LGT SNOW  25  23  93 NW13      29.69S WCI  13
FORT BRIDGER   LGT SNOW  26  26  96 NW6       29.72S WCI  20
ROCK SPRINGS   LGT SNOW  14  11  87 NE13      29.74S VSB 3/4 WCI   0
DIXON          CLOUDY    22  19  86 CALM      29.79F
RAWLINS        CLOUDY    10   5  80 E9        29.79R WCI  -3
SARATOGA       LGT SNOW  12   9  85 CALM      29.77S
LARAMIE        FAIR      14   9  80 NW7       29.74S WCI   4
CHEYENNE       LGT SNOW  11   3  70 N20G29    29.83R WCI  -7
TORRINGTON     LGT SNOW  15   8  73 N14G29    29.97R VSB 3/4 WCI   0
PINE BLUFFS    LGT SNOW  16  10  79 N21G28    29.89R WCI  -2

$$



USA.gov is the U.S. government's official web portal to all federal, state and local government web resources and services.